Starlink 5131

operational
NORAD ID: 53996 Int'l Des: 2022-125 Owner: SPXS Country: US Constellation: starlink
LEOCIRCULAR

Starlink 5131について

説明を読み込み中...

リアルタイム位置

3D地球を読み込み中...

次回通過

高度履歴

Altitude vs Time

uPlot chart will show altitude changes over time

軌道要素

1 53996U 22125AJ 25308.48826912 .00001134 00000-0 89352-4 0 9992
2 53996 53.2175 56.0098 0001427 90.5130 269.6025 15.08839721170560
Epoch: Nov 4, 2025 • Age: 12 hours

現在のステータス

高度 550.8 km
速度 7.59 km/s
衛星直下点 -33.20°S, 139.07°W
打ち上げ日 Oct 5, 2022
運用期間 3 years
タイプ internet

技術仕様

分類 Payload
質量 305.00 kg
乾燥質量 290.00 kg
総質量 305.00 kg
長さ 0.20 m
直径 2.80 m
スパン 9.00 m
形状 Box + pan
製造者 SPXS
バスタイプ Starlink
フェーズステータス In Orbit
所有者/国 SPXS/US

大規模コンステレーション

Loading constellations...